#timestamp,LO_Frequency,Hit,StdDev 
1556157615.5,286047000.9,N
1556157635.3,286047000.6,N
1556157655.1,286046999.0,N
1556157675.9,286046996.5,N
1556157695.7,286046998.8,N
1556157715.5,286046999.6,N
1556157735.4,286047000.2,N
1556157755.2,286047004.2,N
1556157775.1,286047004.2,N
1556157776.0,286047004.2,N
1556157795.8,286047003.4,N
1556157815.6,286047004.3,N
1556157835.5,286047004.6,N
1556157855.3,286047005.4,N
1556157875.1,286047004.8,N
1556157895.9,286047005.7,N
1556157915.7,286047004.5,N
1556157935.6,286047002.9,N
1556157955.4,286047003.3,N
1556157975.2,286047005.3,N
1556157995.1,286047005.0,N
1556157996.0,286047005.0,N
1556158015.8,286047005.4,N
1556158035.6,286047005.3,N
1556158055.5,286047003.3,N
1556158075.3,286047006.7,N
1556158095.2,286047008.6,Y
1556158115.9,286047001.7,P
1556158135.7,286047003.4,P
1556158155.6,286047003.7,P
1556158175.4,286047004.3,Y
1556158195.3,286046999.3,P
1556158215.8,286046998.4,N
1556158235.6,286046999.1,N
1556158255.5,286046997.9,N
1556158275.3,286046998.0,N
1556158295.1,286046994.9,N
1556158315.9,286046997.2,N
1556158335.7,286046995.0,N
1556158355.5,286046995.0,N
1556158375.4,286046995.6,N
1556158395.2,286046998.0,N
1556158415.1,286046996.2,N
1556158416.0,286046996.2,N
1556158435.8,286046993.7,N
1556158455.6,286046994.0,N
1556158475.5,286046993.3,N
1556158495.3,286046992.6,Y
1556158515.2,286046993.5,P
1556158535.9,286046994.6,P
1556158555.7,286046995.7,P
1556158575.6,286046996.0,Y
1556158595.4,286047000.7,P
1556158615.2,286046998.9,N
1556158635.1,286046998.1,N
1556158636.0,286046998.1,N
1556158655.8,286046999.3,N
1556158675.7,286046996.7,N
1556158695.5,286046996.8,N
1556158715.3,286046997.3,N
1556158735.2,286046995.3,Y
1556158755.0,286046999.6,P
1556158755.9,286046999.6,N
1556158775.7,286046996.7,P
1556158795.6,286046998.6,N
1556158815.4,286046998.8,N
1556158835.3,286046998.6,N
1556158855.1,286046998.8,N
1556158856.0,286046998.8,N
1556158875.8,286046999.0,N
1556158895.7,286046996.7,Y
1556158915.5,286047001.0,P
1556158935.3,286047000.4,N
1556158955.2,286047000.6,N
1556158975.0,286046998.6,N
1556158975.9,286046998.6,N
1556158995.8,286046998.9,N
1556159015.6,286046998.2,N
1556159035.4,286047000.7,N
1556159055.3,286047000.0,N
1556159075.1,286047002.8,N
1556159095.8,286047003.1,N
1556159115.7,286047002.6,N
1556159135.5,286047000.7,N
1556159155.4,286046999.3,N
1556159175.2,286046998.4,N
1556159195.0,286046998.6,N
1556159195.9,286046998.6,N
1556159215.8,286047000.7,N
1556159235.6,286047001.0,N
1556159255.4,286046999.4,N
1556159275.3,286046997.1,N
1556159295.1,286046998.1,N
1556159315.9,286047002.3,N
1556159335.7,286047000.5,N
1556159355.5,286047002.8,N
1556159375.4,286047000.4,N
1556159395.2,286047001.6,N
1556159415.0,286047001.6,N
1556159415.9,286047001.6,N
1556159435.8,286047000.2,N
1556159455.6,286047000.4,N
1556159475.5,286047000.8,N
1556159495.3,286047001.4,N
1556159515.1,286047003.2,N
1556159535.9,286047003.3,N
1556159555.7,286047003.2,N
1556159575.5,286047001.6,N
1556159595.4,286047001.7,N
1556159615.2,286047000.2,N
1556159635.0,286047003.9,N
1556159636.0,286047003.9,N
1556159655.8,286047001.3,N
1556159675.6,286047003.9,N
1556159695.5,286047003.0,N
1556159715.3,286047005.1,N
1556159735.1,286047001.9,N
1556159755.9,286046998.1,N
1556159775.7,286046997.5,N
1556159795.5,286047001.2,N
1556159815.4,286046998.1,N
1556159835.2,286046998.1,N
1556159855.1,286046998.5,N
1556159856.0,286046998.5,N
1556159875.8,286047001.8,N
1556159895.6,286047005.3,N
1556159915.5,286047001.4,N
1556159935.3,286047002.2,N
1556159955.2,286047002.3,N
1556159975.9,286047003.8,N
1556159995.7,286047003.6,N
1556160015.6,286047000.3,N
1556160035.4,286046998.5,N
1556160055.2,286046999.6,N
1556160075.1,286046999.0,N
1556160076.0,286046999.0,N
1556160095.8,286046998.7,N
1556160115.7,286047000.8,N
1556160135.5,286046996.9,N
1556160155.3,286047002.4,N
1556160175.2,286047000.5,N
1556160195.0,286046999.2,N
1556160195.9,286046999.2,N
1556160215.8,286047001.2,N
1556160235.6,286047000.0,N
1556160255.4,286046999.2,N
1556160275.3,286046998.2,N
1556160295.1,286046999.4,N
1556160296.0,286046999.4,N
1556160315.8,286046996.6,N
1556160335.7,286047000.8,N
1556160355.5,286046998.8,N
1556160375.3,286046996.7,N
1556160395.2,286046996.5,N
1556160415.0,286047001.4,N
1556160415.9,286047001.4,N
1556160435.8,286046999.7,N
1556160455.6,286046998.1,N
1556160475.4,286047001.2,N
1556160495.3,286047001.8,N
1556160515.1,286047003.3,N
1556160535.9,286047007.2,Y
1556160555.7,286047006.1,P
1556160575.5,286047004.9,N
1556160595.4,286047003.7,N
1556160615.2,286047001.8,N
1556160635.0,286047004.1,N
1556160635.9,286047004.1,N
1556160655.8,286047003.6,N
1556160675.6,286047001.9,N
1556160695.5,286047003.0,N
1556160715.3,286047001.6,N
1556160735.1,286047004.3,N
1556160755.9,286047002.5,N
1556160775.7,286047003.6,N
1556160795.5,286047006.8,Y
1556160815.4,286046999.9,P
1556160835.2,286047002.5,N
1556160855.1,286046998.7,N
1556160856.0,286046998.7,N
1556160875.8,286046998.8,N
1556160895.6,286046999.9,N
1556160915.5,286047004.4,N
1556160935.3,286047001.3,N
1556160955.1,286047003.8,N
1556160975.9,286047004.0,N
1556160995.7,286047003.1,N
1556161015.6,286047004.7,N
1556161035.4,286047004.6,N
1556161055.2,286047007.2,Y
1556161075.1,286047005.8,P
1556161076.0,286047005.8,P
1556161095.8,286047004.6,N
1556161115.6,286047001.4,N
1556161135.5,286047002.1,N
1556161155.3,286047003.2,N
1556161175.2,286047000.6,N
1556161195.9,286046998.4,N
